Skip Page Navigation
NASA JPL Caltech
NASA Logo - Jet Propulsion Laboratory + View the NASA Portal
+ Center for Near-Earth Object Studies
JPL Home Earth Solar System Stars & Galaxies Technology
JPL Solar System Dynamics
BODIES ORBITS EPHEMERIDES TOOLS PHYSICAL DATA DISCOVERY FAQ SITE MAP
JPL Small-Body Database Browser
Search: [ help ]  
541974 (2012 FX67)
Classification: Main-belt Asteroid          SPK-ID: 2541974
Ephemeris | Orbit Diagram | Orbital Elements | Mission Design | Physical Parameters | Discovery Circumstances | Close-Approach Data ]

[ show orbit diagram ]
Orbital Elements at Epoch 2459200.5 (2020-Dec-17.0) TDB
Reference: JPL 12 (heliocentric ecliptic J2000)
 Element Value Uncertainty (1-sigma)   Units 
e .3113308186188282 1.9277e-07  
a 2.640805723190365 6.4792e-08 au
q 1.818641515576222 5.4415e-07 au
i 12.7487286930912 1.9477e-05 deg
node 49.7337440932049 4.9894e-05 deg
peri 79.86712435719704 7.0797e-05 deg
M 37.43902106821286 4.4423e-05 deg
tp 2459037.485930450711
(2020-Jul-06.98593045)
0.00019149 TDB
period 1567.483960940689
4.29
5.7687e-05
1.579e-07
d
yr
n .229667421785901 8.4523e-09 deg/d
Q 3.462969930804508 8.4963e-08 au
  Orbit Determination Parameters
   # obs. used (total)      77  
   data-arc span      6193 days (16.96 yr)  
   first obs. used      2002-11-24  
   last obs. used      2019-11-08  
   planetary ephem.      DE441  
   SB-pert. ephem.      SB441-N16  
   condition code      0  
   norm. resid. RMS      .43883  
   source      ORB  
   producer      Otto Matic  
   solution date      2021-Apr-14 20:25:05  

Additional Information
 Earth MOID = .883217 au 
 Jupiter MOID = 1.82485 au 
 T_jup = 3.291 
[ show covariance matrix ]

Ephemeris | Orbit Diagram | Orbital Elements | Mission Design | Physical Parameters | Discovery Circumstances | Close-Approach Data ]

Physical Parameter Table
Parameter Symbol Value Units Sigma Reference Notes
absolute magnitude H 17.4   n/a E2013R82  

541974 (2012 FX67)          Discovered 2008-Mar-30 by Spacewatch at Kitt Peak
Reference: Last Updated: 2019-12-13

[ show close-approach data ]
Ephemeris | Orbit Diagram | Orbital Elements | Mission Design | Physical Parameters | Discovery Circumstances | Close-Approach Data ]
ABOUT SSD CREDITS/AWARDS PRIVACY/COPYRIGHT GLOSSARY LINKS
FirstGov 2021-Jun-25 05:25 UT
(server date/time)  
NASA Home Page
Site Manager:   Ryan S. Park
Webmaster  Alan B. Chamberlin